Location: Bonny Doon Airfield
(37.0704°N, 122.1252°W)
Time: 17:12:44
(UTC-07:00)

Vanguard 2 - Pass Details

Date: 17 December 2017
Orbit: 553 x 2939 km, 32.9° (Epoch: 22 July)

Event Time Altitude Azimuth Distance (km) Brightness Sun altitude
Rises 14:02:40 0° 242° (WSW) 5,726 12.9 23.5°
Reaches altitude 10° 14:07:09 10° 238° (WSW) 4,338 12.6 23.0°
Maximum altitude 14:17:28 50° 167° (SSE) 1,618 10.0 22.0°
Drops below altitude 10° 14:23:42 10° 94° (E) 2,668 10.1 21.3°
Sets 14:25:52 0° 88° (E) 3,398 10.5 21.0°
